Location: Unspecified
(0.0000°N, 0.0000°E)
Time: 00:32:12
(UTC+00:00)

CSTB 1 - Pass Details

Date: 26 May 2026
Orbit: 607 x 696 km, 98.4° (Epoch: 10 June)

Event Time Altitude Azimuth Distance (km) Brightness Sun altitude
Rises 04:22:43 0° 53° (NE) 3,060 ? -21.9°
Reaches altitude 10° 04:27:16 10° 94° (E) 2,141 ? -20.9°
Maximum altitude 04:27:57 10° 103° (ESE) 2,120 ? -20.7°
Drops below altitude 10° 04:28:38 10° 111° (ESE) 2,138 ? -20.5°
Sets 04:33:08 0° 152° (SSE) 3,040 ? -19.5°
